,,PA_Meas_PMT16A,,PR_Meas_QMR101_102,,RH_Meas_QMH101,,SR_Meas_QMS101,,TA_Meas_QMH101,,GenWind,,GenWind,
time,status,PA,status,PR,status,RH,status,SR,status,TA,status,DirAvg,status,SpdAvg,
2012-10-29, 00:00:04,VALID,915.984,VALID,0,VALID,93.6765,VALID,0,VALID,19.9593,VALID,136,VALID,0,
2012-10-29, 00:01:04,VALID,915.936,VALID,0,VALID,93.5546,VALID,0,VALID,19.9578,VALID,136,VALID,0,
2012-10-29, 00:02:04,VALID,915.949,VALID,0,VALID,93.5241,VALID,0,VALID,19.9593,VALID,136,VALID,0,
2012-10-29, 00:03:04,VALID,915.912,VALID,0,VALID,93.425,VALID,0,VALID,19.9383,VALID,136,VALID,0,
2012-10-29, 00:04:04,VALID,915.886,VALID,0,VALID,93.5546,VALID,0,VALID,19.9383,VALID,136,VALID,0,
2012-10-29, 00:05:04,VALID,915.9,VALID,0,VALID,93.5546,VALID,0.107441,VALID,19.9383,VALID,130,VALID,0,
2012-10-29, 00:06:04,VALID,915.839,VALID,0,VALID,93.4478,VALID,0,VALID,19.9188,VALID,130,VALID,0,
2012-10-29, 00:07:04,VALID,915.833,VALID,0,VALID,93.5546,VALID,0.107441,VALID,19.9188,VALID,116,VALID,0,
2012-10-29, 00:08:04,VALID,915.813,VALID,0,VALID,93.5622,VALID,0.107441,VALID,19.8993,VALID,133,VALID,0,
2012-10-29, 00:09:04,VALID,915.838,VALID,0,VALID,93.5393,VALID,0.107441,VALID,19.9203,VALID,124,VALID,0,
2012-10-29, 00:10:04,VALID,915.835,VALID,0,VALID,93.5012,VALID,0,VALID,19.9203,VALID,123,VALID,0,
2012-10-29, 00:11:04,VALID,915.807,VALID,0,VALID,93.5164,VALID,0.107441,VALID,19.9008,VALID,123,VALID,0,
2012-10-29, 00:12:04,VALID,915.82,VALID,0,VALID,93.5774,VALID,0,VALID,19.9398,VALID,122,VALID,0,
2012-10-29, 00:13:04,VALID,915.832,VALID,0,VALID,93.646,VALID,0,VALID,19.9383,VALID,123,VALID,0,
2012-10-29, 00:14:04,VALID,915.833,VALID,0,VALID,93.5546,VALID,0,VALID,19.9383,VALID,117,VALID,0,
2012-10-29, 00:15:04,VALID,915.832,VALID,0,VALID,93.4402,VALID,0.107441,VALID,19.9188,VALID,139,VALID,0,
2012-10-29, 00:16:04,VALID,915.809,VALID,0,VALID,93.4707,VALID,0.107441,VALID,19.9188,VALID,125,VALID,0,
2012-10-29, 00:17:04,VALID,915.839,VALID,0,VALID,93.6155,VALID,0,VALID,19.9188,VALID,137,VALID,0,
2012-10-29, 00:18:04,VALID,915.822,VALID,0,VALID,93.6003,VALID,0,VALID,19.8993,VALID,152,VALID,0,
2012-10-29, 00:19:04,VALID,915.792,VALID,0,VALID,93.6842,VALID,0,VALID,19.9008,VALID,166,VALID,0,
2012-10-29, 00:20:04,VALID,915.827,VALID,0,VALID,93.6994,VALID,0.107441,VALID,19.8993,VALID,154,VALID,0,
2012-10-29, 00:21:04,VALID,915.793,VALID,0,VALID,93.6613,VALID,0,VALID,19.8798,VALID,156,VALID,0,
2012-10-29, 00:22:04,VALID,915.824,VALID,0,VALID,93.7223,VALID,0,VALID,19.9008,VALID,160,VALID,0,
2012-10-29, 00:23:04,VALID,915.832,VALID,0,VALID,93.7756,VALID,0,VALID,19.8603,VALID,166,VALID,0,
2012-10-29, 00:24:04,VALID,915.776,VALID,0,VALID,93.89,VALID,0,VALID,19.8618,VALID,166,VALID,0,
2012-10-29, 00:25:04,VALID,915.794,VALID,0,VALID,93.9891,VALID,0,VALID,19.8018,VALID,166,VALID,0,
2012-10-29, 00:26:04,VALID,915.794,VALID,0,VALID,94.0806,VALID,0,VALID,19.8033,VALID,164,VALID,0,
2012-10-29, 00:27:04,VALID,915.76,VALID,0,VALID,94.1873,VALID,0,VALID,19.7628,VALID,163,VALID,0,
2012-10-29, 00:28:04,VALID,915.764,VALID,0,VALID,94.3017,VALID,0,VALID,19.8018,VALID,171,VALID,0,
2012-10-29, 00:29:04,VALID,915.735,VALID,0,VALID,94.233,VALID,0.107441,VALID,19.8213,VALID,148,VALID,0,
2012-10-29, 00:30:04,VALID,915.699,VALID,0,VALID,94.1873,VALID,0,VALID,19.8618,VALID,159,VALID,0,
2012-10-29, 00:31:04,VALID,915.687,VALID,0,VALID,94.0806,VALID,0,VALID,19.8603,VALID,150,VALID,0,
2012-10-29, 00:32:04,VALID,915.671,VALID,0,VALID,93.9891,VALID,0,VALID,19.8993,VALID,165,VALID,0,
2012-10-29, 00:33:04,VALID,915.678,VALID,0,VALID,93.8824,VALID,0,VALID,19.8993,VALID,151,VALID,0,
2012-10-29, 00:34:04,VALID,915.662,VALID,0,VALID,93.768,VALID,0,VALID,19.8993,VALID,157,VALID,0,
2012-10-29, 00:35:04,VALID,915.682,VALID,0,VALID,93.7223,VALID,0,VALID,19.9188,VALID,161,VALID,0,
2012-10-29, 00:36:04,VALID,915.675,VALID,0,VALID,93.6537,VALID,0,VALID,19.9203,VALID,160,VALID,0,
2012-10-29, 00:37:04,VALID,915.681,VALID,0,VALID,93.5317,VALID,0,VALID,19.9203,VALID,170,VALID,0,
2012-10-29, 00:38:04,VALID,915.676,VALID,0,VALID,93.3868,VALID,0,VALID,19.9203,VALID,144,VALID,0,
2012-10-29, 00:39:04,VALID,915.652,VALID,0,VALID,93.1886,VALID,0,VALID,19.9188,VALID,141,VALID,0,
2012-10-29, 00:40:04,VALID,915.658,VALID,0,VALID,92.8456,VALID,0,VALID,19.9788,VALID,135,VALID,0,
2012-10-29, 00:41:04,VALID,915.65,VALID,0,VALID,92.3958,VALID,0,VALID,20.0163,VALID,126,VALID,0,
2012-10-29, 00:42:04,VALID,915.616,VALID,0,VALID,91.9918,VALID,0,VALID,20.0749,VALID,141,VALID,0,
2012-10-29, 00:43:04,VALID,915.628,VALID,0,VALID,91.603,VALID,0,VALID,20.0944,VALID,142,VALID,0,
2012-10-29, 00:44:04,VALID,915.566,VALID,0,VALID,91.4581,VALID,0,VALID,20.1139,VALID,150,VALID,0,
2012-10-29, 00:45:04,VALID,915.59,VALID,0,VALID,91.359,VALID,0,VALID,20.1349,VALID,129,VALID,0,
2012-10-29, 00:46:04,VALID,915.562,VALID,0,VALID,91.3743,VALID,0,VALID,20.1139,VALID,133,VALID,0,
2012-10-29, 00:47:04,VALID,915.54,VALID,0,VALID,91.2599,VALID,0,VALID,20.1544,VALID,127,VALID,0,
2012-10-29, 00:48:04,VALID,915.525,VALID,0,VALID,91.0922,VALID,0,VALID,20.1529,VALID,124,VALID,0,
2012-10-29, 00:49:04,VALID,915.51,VALID,0,VALID,90.9855,VALID,0,VALID,20.1739,VALID,130,VALID,0,
2012-10-29, 00:50:04,VALID,915.506,VALID,0,VALID,90.9092,VALID,0,VALID,20.1529,VALID,132,VALID,0,
2012-10-29, 00:51:04,VALID,915.478,VALID,0,VALID,91.016,VALID,0,VALID,20.1544,VALID,134,VALID,0,
2012-10-29, 00:52:04,VALID,915.492,VALID,0,VALID,91.077,VALID,0,VALID,20.0944,VALID,134,VALID,0,
2012-10-29, 00:53:04,VALID,915.46,VALID,0,VALID,91.2294,VALID,0,VALID,20.0959,VALID,134,VALID,0,
2012-10-29, 00:54:04,VALID,915.457,VALID,0,VALID,91.2599,VALID,0,VALID,20.0764,VALID,142,VALID,0,
2012-10-29, 00:55:04,VALID,915.409,VALID,0,VALID,91.298,VALID,0,VALID,20.0749,VALID,133,VALID,0,
2012-10-29, 00:56:04,VALID,915.406,VALID,0,VALID,91.3438,VALID,0,VALID,20.0959,VALID,145,VALID,0,
2012-10-29, 00:57:04,VALID,915.371,VALID,0,VALID,91.2599,VALID,0,VALID,20.0749,VALID,145,VALID,0,
2012-10-29, 00:58:04,VALID,915.378,VALID,0,VALID,91.1913,VALID,0,VALID,20.1154,VALID,145,VALID,0,
2012-10-29, 00:59:04,VALID,915.378,VALID,0,VALID,91.1837,VALID,0,VALID,20.0553,VALID,145,VALID,0,
2012-10-29, 01:00:04,VALID,915.369,VALID,0,VALID,91.1303,VALID,0,VALID,20.0163,VALID,145,VALID,0,
2012-10-29, 01:01:04,VALID,915.369,VALID,0,VALID,91.0922,VALID,0.107441,VALID,20.0163,VALID,145,VALID,0,
2012-10-29, 01:02:04,VALID,915.401,VALID,0,VALID,91.298,VALID,0,VALID,19.9773,VALID,145,VALID,0,
2012-10-29, 01:03:04,VALID,915.352,VALID,0,VALID,91.5496,VALID,0,VALID,19.9188,VALID,145,VALID,0,
2012-10-29, 01:04:04,VALID,915.368,VALID,0,VALID,92.0604,VALID,0,VALID,19.8798,VALID,145,VALID,0,
2012-10-29, 01:05:04,VALID,915.345,VALID,0,VALID,92.594,VALID,0,VALID,19.8213,VALID,145,VALID,0,
2012-10-29, 01:06:04,VALID,915.363,VALID,0,VALID,92.9066,VALID,0,VALID,19.7628,VALID,145,VALID,0,
2012-10-29, 01:07:04,VALID,915.337,VALID,0,VALID,93.2191,VALID,0.107441,VALID,19.7238,VALID,145,VALID,0,
2012-10-29, 01:08:04,VALID,915.305,VALID,0,VALID,93.3487,VALID,0,VALID,19.6653,VALID,145,VALID,0,
2012-10-29, 01:09:04,VALID,915.317,VALID,0,VALID,93.4097,VALID,0,VALID,19.6068,VALID,145,VALID,0,
2012-10-29, 01:10:04,VALID,915.315,VALID,0,VALID,93.5469,VALID,0.107441,VALID,19.5873,VALID,145,VALID,0,
2012-10-29, 01:11:04,VALID,915.332,VALID,0,VALID,93.768,VALID,0,VALID,19.5483,VALID,145,VALID,0,
2012-10-29, 01:12:04,VALID,915.33,VALID,0,VALID,93.8519,VALID,0,VALID,19.5303,VALID,145,VALID,0,
2012-10-29, 01:13:04,VALID,915.321,VALID,0,VALID,93.4859,VALID,0,VALID,19.4523,VALID,145,VALID,0,
2012-10-29, 01:14:04,VALID,915.312,VALID,0,VALID,93.4783,VALID,0,VALID,19.3547,VALID,145,VALID,0,
2012-10-29, 01:15:04,VALID,915.278,VALID,0,VALID,93.7833,VALID,0,VALID,19.2948,VALID,145,VALID,0,
2012-10-29, 01:16:04,VALID,915.289,VALID,0,VALID,94.0577,VALID,0,VALID,19.2767,VALID,145,VALID,0,
2012-10-29, 01:17:04,VALID,915.246,VALID,0,VALID,94.4084,VALID,0,VALID,19.2767,VALID,145,VALID,0,
2012-10-29, 01:18:04,VALID,915.243,VALID,0,VALID,94.66,VALID,0,VALID,19.2767,VALID,145,VALID,0,
2012-10-29, 01:19:04,VALID,915.239,VALID,0,VALID,94.82,VALID,0,VALID,19.2962,VALID,145,VALID,0,
2012-10-29, 01:20:04,VALID,915.244,VALID,0,VALID,94.8429,VALID,0,VALID,19.2948,VALID,145,VALID,0,
2012-10-29, 01:21:04,VALID,915.235,VALID,0,VALID,94.9496,VALID,0,VALID,19.3157,VALID,145,VALID,0,
2012-10-29, 01:22:04,VALID,915.218,VALID,0,VALID,94.8582,VALID,0,VALID,19.2962,VALID,145,VALID,0,
2012-10-29, 01:23:04,VALID,915.245,VALID,0,VALID,94.8963,VALID,0,VALID,19.2558,VALID,147,VALID,0,
2012-10-29, 01:24:04,VALID,915.224,VALID,0,VALID,94.9649,VALID,0,VALID,19.2767,VALID,127,VALID,0,
2012-10-29, 01:25:04,VALID,915.187,VALID,0,VALID,94.9496,VALID,0,VALID,19.2962,VALID,129,VALID,0,
2012-10-29, 01:26:04,VALID,915.198,VALID,0,VALID,94.9192,VALID,0,VALID,19.3547,VALID,119,VALID,0,
2012-10-29, 01:27:04,VALID,915.161,VALID,0,VALID,94.82,VALID,0,VALID,19.3937,VALID,123,VALID,0,
2012-10-29, 01:28:04,VALID,915.161,VALID,0,VALID,94.7514,VALID,0,VALID,19.4523,VALID,133,VALID,0,
2012-10-29, 01:29:04,VALID,915.152,VALID,0,VALID,94.5761,VALID,0,VALID,19.4913,VALID,145,VALID,0,
2012-10-29, 01:30:04,VALID,915.101,VALID,0,VALID,94.3855,VALID,0,VALID,19.4913,VALID,140,VALID,0,
2012-10-29, 01:31:04,VALID,915.101,VALID,0,VALID,94.1492,VALID,0,VALID,19.4913,VALID,133,VALID,0,
2012-10-29, 01:32:04,VALID,915.059,VALID,0,VALID,94.0348,VALID,0,VALID,19.4913,VALID,135,VALID,0,
2012-10-29, 01:33:04,VALID,915.031,VALID,0,VALID,93.9738,VALID,0,VALID,19.4913,VALID,156,VALID,0,
2012-10-29, 01:34:04,VALID,915.019,VALID,0,VALID,93.8519,VALID,0,VALID,19.4718,VALID,156,VALID,0,
2012-10-29, 01:35:04,VALID,914.989,VALID,0,VALID,93.8519,VALID,0,VALID,19.4523,VALID,156,VALID,0,
2012-10-29, 01:36:04,VALID,914.982,VALID,0,VALID,93.9815,VALID,0,VALID,19.4718,VALID,156,VALID,0,
2012-10-29, 01:37:04,VALID,914.974,VALID,0,VALID,93.8061,VALID,0,VALID,19.4523,VALID,155,VALID,0,
2012-10-29, 01:38:04,VALID,914.973,VALID,0,VALID,93.9129,VALID,0,VALID,19.4327,VALID,151,VALID,0,
2012-10-29, 01:39:04,VALID,914.936,VALID,0,VALID,93.9891,VALID,0,VALID,19.4523,VALID,145,VALID,0,
2012-10-29, 01:40:04,VALID,914.927,VALID,0,VALID,93.9434,VALID,0,VALID,19.4327,VALID,155,VALID,0,
2012-10-29, 01:41:04,VALID,914.909,VALID,0,VALID,94.012,VALID,0,VALID,19.4508,VALID,155,VALID,0,
2012-10-29, 01:42:04,VALID,914.915,VALID,0,VALID,93.9357,VALID,0.107441,VALID,19.4523,VALID,155,VALID,0,
2012-10-29, 01:43:04,VALID,914.919,VALID,0,VALID,93.9052,VALID,0,VALID,19.4118,VALID,155,VALID,0,
2012-10-29, 01:44:04,VALID,914.881,VALID,0,VALID,94.0272,VALID,0,VALID,19.4523,VALID,150,VALID,0,
2012-10-29, 01:45:04,VALID,914.885,VALID,0,VALID,93.8747,VALID,0,VALID,19.4132,VALID,150,VALID,0,
2012-10-29, 01:46:04,VALID,914.888,VALID,0,VALID,94.0425,VALID,0,VALID,19.4132,VALID,150,VALID,0,
2012-10-29, 01:47:04,VALID,914.879,VALID,0,VALID,94.0196,VALID,0,VALID,19.3937,VALID,150,VALID,0,
2012-10-29, 01:48:04,VALID,914.858,VALID,0,VALID,94.1187,VALID,0,VALID,19.3937,VALID,150,VALID,0,
2012-10-29, 01:49:04,VALID,914.897,VALID,0,VALID,94.1034,VALID,0,VALID,19.3547,VALID,150,VALID,0,
2012-10-29, 01:50:04,VALID,914.867,VALID,0,VALID,94.0653,VALID,0,VALID,19.3352,VALID,150,VALID,0,
2012-10-29, 01:51:04,VALID,914.849,VALID,0,VALID,94.0196,VALID,0,VALID,19.2962,VALID,151,VALID,0,
2012-10-29, 01:52:04,VALID,914.824,VALID,0,VALID,94.2559,VALID,0,VALID,19.3157,VALID,156,VALID,0,
2012-10-29, 01:53:04,VALID,914.814,VALID,0,VALID,94.3779,VALID,0,VALID,19.3157,VALID,156,VALID,0,
2012-10-29, 01:54:04,VALID,914.813,VALID,0,VALID,94.4313,VALID,0,VALID,19.3157,VALID,156,VALID,0,
2012-10-29, 01:55:04,VALID,914.808,VALID,0,VALID,94.5304,VALID,0,VALID,19.3352,VALID,156,VALID,0,
2012-10-29, 01:56:04,VALID,914.824,VALID,0,VALID,94.5609,VALID,0,VALID,19.3157,VALID,156,VALID,0,
2012-10-29, 01:57:04,VALID,914.811,VALID,0,VALID,94.6371,VALID,0,VALID,19.2962,VALID,156,VALID,0,
2012-10-29, 01:58:04,VALID,914.795,VALID,0,VALID,94.6676,VALID,0,VALID,19.3172,VALID,156,VALID,0,
2012-10-29, 01:59:04,VALID,914.802,VALID,0,VALID,94.7133,VALID,0,VALID,19.2977,VALID,156,VALID,0,
2012-10-29, 02:00:04,VALID,914.788,VALID,0,VALID,94.7514,VALID,0,VALID,19.2572,VALID,156,VALID,0,
2012-10-29, 02:01:04,VALID,914.768,VALID,0,VALID,94.8048,VALID,0,VALID,19.2377,VALID,156,VALID,0,
2012-10-29, 02:02:04,VALID,914.76,VALID,0,VALID,94.9268,VALID,0,VALID,19.2377,VALID,156,VALID,0,
2012-10-29, 02:03:04,VALID,914.741,VALID,0,VALID,95.0792,VALID,0,VALID,19.2587,VALID,156,VALID,0,
2012-10-29, 02:04:04,VALID,914.731,VALID,0,VALID,95.247,VALID,0,VALID,19.2782,VALID,156,VALID,0,
2012-10-29, 02:05:04,VALID,914.699,VALID,0,VALID,95.2851,VALID,0,VALID,19.2377,VALID,156,VALID,0,
2012-10-29, 02:06:04,VALID,914.685,VALID,0,VALID,95.3461,VALID,0,VALID,19.2377,VALID,156,VALID,0,
2012-10-29, 02:07:04,VALID,914.665,VALID,0,VALID,95.4223,VALID,0,VALID,19.2182,VALID,156,VALID,0,
2012-10-29, 02:08:04,VALID,914.652,VALID,0,VALID,95.4452,VALID,0,VALID,19.2182,VALID,156,VALID,0,
2012-10-29, 02:09:04,VALID,914.647,VALID,0,VALID,95.4757,VALID,0,VALID,19.1987,VALID,156,VALID,0,
2012-10-29, 02:10:04,VALID,914.65,VALID,0,VALID,95.5138,VALID,0,VALID,19.2002,VALID,156,VALID,0,
2012-10-29, 02:11:04,VALID,914.678,VALID,0,VALID,95.5367,VALID,0,VALID,19.1792,VALID,156,VALID,0,
2012-10-29, 02:12:04,VALID,914.673,VALID,0,VALID,95.6739,VALID,0,VALID,19.1987,VALID,156,VALID,0,
2012-10-29, 02:13:04,VALID,914.69,VALID,0,VALID,95.6815,VALID,0,VALID,19.1987,VALID,156,VALID,0,
2012-10-29, 02:14:04,VALID,914.685,VALID,0,VALID,95.7196,VALID,0,VALID,19.1987,VALID,156,VALID,0,
2012-10-29, 02:15:04,VALID,914.673,VALID,0,VALID,95.7272,VALID,0,VALID,19.1792,VALID,156,VALID,0,
2012-10-29, 02:16:04,VALID,914.687,VALID,0,VALID,95.7196,VALID,0,VALID,19.1792,VALID,156,VALID,0,
2012-10-29, 02:17:04,VALID,914.705,VALID,0,VALID,95.773,VALID,0,VALID,19.1792,VALID,156,VALID,0,
2012-10-29, 02:18:04,VALID,914.694,VALID,0,VALID,95.8492,VALID,0,VALID,19.1987,VALID,156,VALID,0,
2012-10-29, 02:19:04,VALID,914.7,VALID,0,VALID,95.9026,VALID,0,VALID,19.2182,VALID,156,VALID,0,
2012-10-29, 02:20:04,VALID,914.684,VALID,0,VALID,95.8416,VALID,0,VALID,19.1987,VALID,156,VALID,0,
2012-10-29, 02:21:04,VALID,914.728,VALID,0,VALID,95.7958,VALID,0,VALID,19.1792,VALID,156,VALID,0,
2012-10-29, 02:22:04,VALID,914.686,VALID,0,VALID,95.7577,VALID,0,VALID,19.1597,VALID,152,VALID,0,
2012-10-29, 02:23:04,VALID,914.694,VALID,0,VALID,95.7882,VALID,0,VALID,19.1388,VALID,151,VALID,0,
2012-10-29, 02:24:04,VALID,914.71,VALID,0,VALID,95.7654,VALID,0,VALID,19.1402,VALID,151,VALID,0,
2012-10-29, 02:25:04,VALID,914.674,VALID,0,VALID,95.7577,VALID,0,VALID,19.1012,VALID,151,VALID,0,
2012-10-29, 02:26:04,VALID,914.677,VALID,0,VALID,95.7196,VALID,0,VALID,19.0622,VALID,151,VALID,0,
2012-10-29, 02:27:04,VALID,914.668,VALID,0,VALID,95.8568,VALID,0,VALID,19.0817,VALID,151,VALID,0,
2012-10-29, 02:28:04,VALID,914.66,VALID,0,VALID,95.9178,VALID,0,VALID,19.0817,VALID,151,VALID,0,
2012-10-29, 02:29:04,VALID,914.641,VALID,0,VALID,95.9788,VALID,0,VALID,19.0817,VALID,151,VALID,0,
2012-10-29, 02:30:04,VALID,914.644,VALID,0,VALID,95.9636,VALID,0,VALID,19.0413,VALID,151,VALID,0,
2012-10-29, 02:31:04,VALID,914.623,VALID,0,VALID,95.9483,VALID,0,VALID,19.0427,VALID,151,VALID,0,
2012-10-29, 02:32:04,VALID,914.634,VALID,0,VALID,95.9407,VALID,0,VALID,19.0637,VALID,151,VALID,0,
2012-10-29, 02:33:04,VALID,914.656,VALID,0,VALID,95.9864,VALID,0,VALID,19.0427,VALID,151,VALID,0,
2012-10-29, 02:34:04,VALID,914.637,VALID,0,VALID,96.0169,VALID,0,VALID,19.0427,VALID,151,VALID,0,
2012-10-29, 02:35:04,VALID,914.643,VALID,0,VALID,96.0245,VALID,0,VALID,19.0427,VALID,151,VALID,0,
2012-10-29, 02:36:04,VALID,914.644,VALID,0,VALID,95.9941,VALID,0,VALID,19.0427,VALID,151,VALID,0,
2012-10-29, 02:37:04,VALID,914.636,VALID,0,VALID,95.9636,VALID,0,VALID,19.0232,VALID,151,VALID,0,
2012-10-29, 02:38:04,VALID,914.604,VALID,0,VALID,95.9636,VALID,0,VALID,19.0037,VALID,151,VALID,0,
2012-10-29, 02:39:04,VALID,914.633,VALID,0,VALID,95.9636,VALID,0,VALID,19.0037,VALID,151,VALID,0,
2012-10-29, 02:40:04,VALID,914.601,VALID,0,VALID,96.0322,VALID,0,VALID,19.0037,VALID,151,VALID,0,
2012-10-29, 02:41:04,VALID,914.572,VALID,0,VALID,96.116,VALID,0,VALID,18.9828,VALID,151,VALID,0,
2012-10-29, 02:42:04,VALID,914.551,VALID,0,VALID,96.1008,VALID,0,VALID,19.0037,VALID,151,VALID,0,
2012-10-29, 02:43:04,VALID,914.541,VALID,0,VALID,96.1313,VALID,0,VALID,18.9647,VALID,151,VALID,0,
2012-10-29, 02:44:04,VALID,914.533,VALID,0,VALID,96.1313,VALID,0,VALID,18.9647,VALID,151,VALID,0,
2012-10-29, 02:45:04,VALID,914.546,VALID,0,VALID,96.1846,VALID,0,VALID,18.9857,VALID,149,VALID,0,
2012-10-29, 02:46:04,VALID,914.512,VALID,0,VALID,96.299,VALID,0,VALID,19.0037,VALID,133,VALID,0,
2012-10-29, 02:47:04,VALID,914.463,VALID,0,VALID,96.36,VALID,0,VALID,19.0037,VALID,130,VALID,0,
2012-10-29, 02:48:04,VALID,914.46,VALID,0,VALID,96.3676,VALID,0,VALID,18.9842,VALID,134,VALID,0,
2012-10-29, 02:49:04,VALID,914.47,VALID,0,VALID,96.3676,VALID,0,VALID,19.0037,VALID,133,VALID,0,
2012-10-29, 02:50:04,VALID,914.458,VALID,0,VALID,96.3829,VALID,0,VALID,19.0037,VALID,133,VALID,0,
2012-10-29, 02:51:04,VALID,914.433,VALID,0,VALID,96.3524,VALID,0,VALID,18.9842,VALID,133,VALID,0,
2012-10-29, 02:52:04,VALID,914.447,VALID,0,VALID,96.4286,VALID,0,VALID,19.0037,VALID,126,VALID,0,
2012-10-29, 02:53:04,VALID,914.421,VALID,0,VALID,96.421,VALID,0,VALID,18.9842,VALID,130,VALID,0,
2012-10-29, 02:54:04,VALID,914.439,VALID,0,VALID,96.4286,VALID,0,VALID,19.0037,VALID,130,VALID,0,
2012-10-29, 02:55:04,VALID,914.417,VALID,0,VALID,96.3905,VALID,0,VALID,18.9842,VALID,130,VALID,0,
2012-10-29, 02:56:04,VALID,914.424,VALID,0,VALID,96.3905,VALID,0,VALID,18.9842,VALID,130,VALID,0,
2012-10-29, 02:57:04,VALID,914.432,VALID,0,VALID,96.4896,VALID,0,VALID,19.0232,VALID,130,VALID,0,
2012-10-29, 02:58:04,VALID,914.416,VALID,0,VALID,96.4286,VALID,0,VALID,19.0037,VALID,130,VALID,0,
2012-10-29, 02:59:04,VALID,914.436,VALID,0,VALID,96.3447,VALID,0,VALID,18.9842,VALID,130,VALID,0,
2012-10-29, 03:00:04,VALID,914.471,VALID,0,VALID,96.3752,VALID,0,VALID,18.9857,VALID,130,VALID,0,
2012-10-29, 03:01:04,VALID,914.472,VALID,0,VALID,96.4133,VALID,0,VALID,18.9647,VALID,130,VALID,0,
2012-10-29, 03:02:04,VALID,914.472,VALID,0,VALID,96.4057,VALID,0,VALID,18.9452,VALID,130,VALID,0,
2012-10-29, 03:03:04,VALID,914.495,VALID,0,VALID,96.421,VALID,0,VALID,18.9452,VALID,130,VALID,0,
2012-10-29, 03:04:04,VALID,914.509,VALID,0,VALID,96.4515,VALID,0,VALID,18.9452,VALID,130,VALID,0,
2012-10-29, 03:05:04,VALID,914.504,VALID,0,VALID,96.4438,VALID,0,VALID,18.9257,VALID,130,VALID,0,
2012-10-29, 03:06:04,VALID,914.512,VALID,0,VALID,96.5506,VALID,0,VALID,18.9467,VALID,130,VALID,0,
2012-10-29, 03:07:04,VALID,914.508,VALID,0,VALID,96.4972,VALID,0,VALID,18.9272,VALID,130,VALID,0,
2012-10-29, 03:08:04,VALID,914.513,VALID,0,VALID,96.5048,VALID,0,VALID,18.9077,VALID,130,VALID,0,
2012-10-29, 03:09:04,VALID,914.54,VALID,0,VALID,96.5658,VALID,0,VALID,18.9272,VALID,130,VALID,0,
2012-10-29, 03:10:04,VALID,914.535,VALID,0,VALID,96.5887,VALID,0,VALID,18.8867,VALID,130,VALID,0,
2012-10-29, 03:11:04,VALID,914.512,VALID,0,VALID,96.6192,VALID,0,VALID,18.8867,VALID,130,VALID,0,
2012-10-29, 03:12:04,VALID,914.513,VALID,0,VALID,96.642,VALID,0,VALID,18.9062,VALID,130,VALID,0,
2012-10-29, 03:13:04,VALID,914.5,VALID,0,VALID,96.6649,VALID,0,VALID,18.9062,VALID,130,VALID,0,
2012-10-29, 03:14:04,VALID,914.497,VALID,0,VALID,96.703,VALID,0,VALID,18.9467,VALID,130,VALID,0,
2012-10-29, 03:15:04,VALID,914.497,VALID,0,VALID,96.703,VALID,0,VALID,18.9467,VALID,130,VALID,0,
2012-10-29, 03:16:04,VALID,914.497,VALID,0,VALID,96.7335,VALID,0,VALID,18.9662,VALID,130,VALID,0,
2012-10-29, 03:17:04,VALID,914.464,VALID,0,VALID,96.7411,VALID,0,VALID,18.9647,VALID,130,VALID,0,
2012-10-29, 03:18:04,VALID,914.478,VALID,0,VALID,96.7411,VALID,0,VALID,18.9857,VALID,130,VALID,0,
2012-10-29, 03:19:04,VALID,914.457,VALID,0,VALID,96.7411,VALID,0,VALID,18.9647,VALID,130,VALID,0,
2012-10-29, 03:20:04,VALID,914.489,VALID,0,VALID,96.7183,VALID,0,VALID,18.9452,VALID,130,VALID,0,
2012-10-29, 03:21:04,VALID,914.453,VALID,0,VALID,96.7107,VALID,0,VALID,18.9452,VALID,130,VALID,0,
2012-10-29, 03:22:04,VALID,914.452,VALID,0,VALID,96.6878,VALID,0,VALID,18.9257,VALID,130,VALID,0,
2012-10-29, 03:23:04,VALID,914.438,VALID,0,VALID,96.642,VALID,0,VALID,18.8867,VALID,130,VALID,0,
2012-10-29, 03:24:04,VALID,914.446,VALID,0,VALID,96.6725,VALID,0,VALID,18.8477,VALID,130,VALID,0,
2012-10-29, 03:25:04,VALID,914.477,VALID,0,VALID,96.6573,VALID,0,VALID,18.8087,VALID,130,VALID,0,
2012-10-29, 03:26:04,VALID,914.479,VALID,0,VALID,96.6725,VALID,0,VALID,18.8282,VALID,96,VALID,0,
2012-10-29, 03:27:04,VALID,914.452,VALID,0,VALID,96.6954,VALID,0,VALID,18.8087,VALID,96,VALID,0,
2012-10-29, 03:28:04,VALID,914.459,VALID,0,VALID,96.6954,VALID,0,VALID,18.7892,VALID,96,VALID,0,
2012-10-29, 03:29:04,VALID,914.45,VALID,0,VALID,96.7564,VALID,0,VALID,18.8087,VALID,96,VALID,0,
2012-10-29, 03:30:04,VALID,914.417,VALID,0,VALID,96.7411,VALID,0,VALID,18.7892,VALID,96,VALID,0,
2012-10-29, 03:31:04,VALID,914.417,VALID,0,VALID,96.7335,VALID,0,VALID,18.8087,VALID,96,VALID,0,
2012-10-29, 03:32:04,VALID,914.402,VALID,0,VALID,96.7183,VALID,0,VALID,18.8073,VALID,96,VALID,0,
2012-10-29, 03:33:04,VALID,914.389,VALID,0,VALID,96.7488,VALID,0,VALID,18.8492,VALID,95,VALID,0,
2012-10-29, 03:34:04,VALID,914.35,VALID,0,VALID,96.6802,VALID,0,VALID,18.8687,VALID,96,VALID,0,
2012-10-29, 03:35:04,VALID,914.383,VALID,0,VALID,96.6649,VALID,0,VALID,18.8672,VALID,95,VALID,0,
2012-10-29, 03:36:04,VALID,914.329,VALID,0,VALID,96.6344,VALID,0,VALID,18.8672,VALID,96,VALID,0,
2012-10-29, 03:37:04,VALID,914.322,VALID,0,VALID,96.6344,VALID,0,VALID,18.8867,VALID,96,VALID,0,
2012-10-29, 03:38:04,VALID,914.302,VALID,0,VALID,96.4972,VALID,0,VALID,18.8672,VALID,96,VALID,0,
2012-10-29, 03:39:04,VALID,914.279,VALID,0,VALID,96.4591,VALID,0,VALID,18.8882,VALID,96,VALID,0,
2012-10-29, 03:40:04,VALID,914.276,VALID,0,VALID,96.4362,VALID,0,VALID,18.8672,VALID,109,VALID,0,
2012-10-29, 03:41:04,VALID,914.243,VALID,0,VALID,96.3676,VALID,0,VALID,18.8672,VALID,109,VALID,0,
2012-10-29, 03:42:04,VALID,914.241,VALID,0,VALID,96.3524,VALID,0,VALID,18.8672,VALID,121,VALID,0,
2012-10-29, 03:43:04,VALID,914.238,VALID,0,VALID,96.1846,VALID,0,VALID,18.8477,VALID,139,VALID,0,
2012-10-29, 03:44:04,VALID,914.246,VALID,0,VALID,96.1313,VALID,0,VALID,18.7892,VALID,142,VALID,0,
2012-10-29, 03:45:04,VALID,914.254,VALID,0,VALID,96.1999,VALID,0,VALID,18.7503,VALID,142,VALID,0,
2012-10-29, 03:46:04,VALID,914.254,VALID,0,VALID,96.1389,VALID,0,VALID,18.6918,VALID,124,VALID,0,
2012-10-29, 03:47:04,VALID,914.28,VALID,0,VALID,96.1541,VALID,0,VALID,18.6528,VALID,124,VALID,0,
2012-10-29, 03:48:04,VALID,914.272,VALID,0,VALID,96.2685,VALID,0,VALID,18.5943,VALID,124,VALID,0,
2012-10-29, 03:49:04,VALID,914.282,VALID,0,VALID,96.3524,VALID,0,VALID,18.5748,VALID,124,VALID,0,
2012-10-29, 03:50:04,VALID,914.25,VALID,0,VALID,96.4362,VALID,0,VALID,18.5358,VALID,124,VALID,0,
2012-10-29, 03:51:04,VALID,914.282,VALID,0,VALID,96.5506,VALID,0,VALID,18.5358,VALID,159,VALID,0,
2012-10-29, 03:52:04,VALID,914.269,VALID,0,VALID,96.5963,VALID,0,VALID,18.5358,VALID,159,VALID,0,
2012-10-29, 03:53:04,VALID,914.283,VALID,0,VALID,96.6497,VALID,0,VALID,18.5358,VALID,159,VALID,0,
2012-10-29, 03:54:04,VALID,914.297,VALID,0,VALID,96.6878,VALID,0,VALID,18.5553,VALID,159,VALID,0,
2012-10-29, 03:55:04,VALID,914.291,VALID,0,VALID,96.7259,VALID,0,VALID,18.5163,VALID,159,VALID,0,
2012-10-29, 03:56:04,VALID,914.298,VALID,0,VALID,96.7411,VALID,0,VALID,18.5358,VALID,135,VALID,0,
2012-10-29, 03:57:04,VALID,914.293,VALID,0,VALID,96.7716,VALID,0,VALID,18.5163,VALID,140,VALID,0,
2012-10-29, 03:58:04,VALID,914.283,VALID,0,VALID,96.8098,VALID,0,VALID,18.5553,VALID,154,VALID,0,
2012-10-29, 03:59:04,VALID,914.309,VALID,0,VALID,96.8555,VALID,0,VALID,18.5748,VALID,163,VALID,0,